Regional Weather Roundup
Issued by NWS

Home | Current Version | Previous Version | Graphics & Text | Print | Product List | Glossary On
Versions: 1 2 3 4 5 6 7 8 9 10 11 12 13 14 15 16 17 18 19 20 21 22 23 24 25 26 27 28 29 30 31 32 33 34 35 36 37 38 39 40 41 42 43 44 45 46 47 48 49 50
000
ASUS45 KTFX 220210
RWRMT
MONTANA REGIONAL WEATHER ROUNDUP
NATIONAL WEATHER SERVICE GREAT FALLS MT
800 PM MDT THU MAY 21 2015

NOTE: "FAIR" INDICATES FEW OR NO CLOUDS BELOW 12000 FEET WITH NO
SIGNIFICANT WEATHER AND/OR OBSTRUCTIONS TO VISIBILITY.

MTZ001>007-043-220300-
WEST OF THE DIVIDE

CITY           SKY/WX    TMP DP  RH WIND       PRES   REMARKS
KALISPELL      CLEAR     75  30  19 NE15      29.82R
MISSOULA       PTSUNNY   59  47  64 NW3       29.90F
BUTTE          CLOUDY    54  39  57 W6        29.98S
MULLAN PASS    CLOUDY    55  35  47 NW5       29.95S
DEER LODGE       N/A     55  45  67 E5        30.02R
EUREKA           N/A     79  30  17 SW3       29.81S
HAMILTON         N/A     64  41  42 NW2       29.90S
LIBBY            N/A     77  36  22 CALM      29.80S
RONAN            N/A     72  41  32 S7        29.90R
$$

MTZ008-052>055-220300-
SOUTHWEST MONTANA

CITY           SKY/WX    TMP DP  RH WIND       PRES   REMARKS
BOZEMAN        MOCLDY    58  40  51 SE15      29.96R
DILLON         MOCLDY    58  40  51 SE12      29.94R
W YELLOWSTONE  MOCLDY    50  36  57 E10G16    30.01R
THREE FORKS      N/A     56  56 100 CALM      29.96S
TWIN BRIDGES     N/A     59  38  45 E9        29.95R
$$

MTZ009-010-012-014-046-048-049-054-220300-
EAST SLOPES AND CENTRAL MONTANA

CITY           SKY/WX    TMP DP  RH WIND       PRES   REMARKS
CUT BANK       CLEAR     65  36  34 E13       29.96R
GREAT FALLS    PTCLDY    63  43  48 S9        29.93S
MALMSTROM AFB  PTCLDY    65  37  36 SE16      29.93R
HELENA         MOCLDY    60  44  55 SE13      29.96R
CONRAD           N/A     68  41  37 E12       29.98S
$$

MTZ011-013-016-021-045-047-050-051-220300-
NORTH CENTRAL MONTANA

CITY           SKY/WX    TMP DP  RH WIND       PRES   REMARKS
HAVRE          CLEAR     67  29  24 SE13      29.97R
LEWISTOWN      CLEAR     61  34  36 E15       29.99S
N BAR RANCH    FAIR      59  34  38 SE13      30.04S
CHINOOK          N/A     66  27  22 E12       29.99R
FORT BENTON      N/A     66  34  30 E15G24    29.94S
$$

MTZ017>020-022>027-061-062-220300-
NORTHEAST MONTANA

CITY           SKY/WX    TMP DP  RH WIND       PRES   REMARKS
GLASGOW        CLEAR     68  28  22 SE16      30.04S
JORDAN           N/A     67  27  22 SE12      30.02R
SIDNEY         CLEAR     68  34  28 E6        30.08S
WOLF POINT     CLEAR     69  33  26 SE6       30.06S
MALTA            N/A     68  32  26 E6        29.99S
PLENTYWOOD       N/A     70  30  23 SE3       30.09S
POPLAR           N/A     68  36  30 E6        30.07S
$$

MTZ028>42-056>058-220300-
SOUTHCENTRAL AND SOUTHEAST MONTANA

CITY           SKY/WX    TMP DP  RH WIND       PRES   REMARKS
BAKER          CLEAR     62  32  32 SE14      30.10S
BILLINGS       PTCLDY    63  39  41 E16       29.98R
LIVINGSTON     LGT RAIN  54  48  80 VRB3      29.99R
MILES CITY     CLEAR     66  25  21 SE15G22   30.03R
BIG TIMBER       N/A     57  43  58 CALM      30.00R
EKALAKA          N/A     58  27  30 E12       30.07S
FORSYTH          N/A     64  27  24 E9        30.01R
LAUREL           N/A     63  38  39 NE7       29.96S
ROUNDUP          N/A     62  35  36 E3        29.92R
$$

REGIONAL REPORTS...DAKOTAS

CITY           SKY/WX    TMP DP  RH WIND       PRES   REMARKS
WILLISTON      CLEAR     67  33  28 E8        30.08R
MINOT          CLEAR     64  39  39 NE6       30.10R
DICKINSON      CLEAR     60  34  37 SE9       30.09S
BEACH          FAIR      59  34  38 SE9       30.11S
CROSBY         FAIR      66  36  32 E6        30.10S
WATFORD CITY   FAIR      64  36  34 SE7       30.07S
BISMARCK       MOCLDY    66  40  38 NE8       30.10R
GRAND FORKS    CLEAR     58  40  51 N5        30.10S
FARGO          CLEAR     59  43  55 NW8       30.10R
BUFFALO SD       N/A     59  30  33 SE14      30.05R
RAPID CITY     MOCLDY    56  43  61 S8        30.13R
$$

REGIONAL REPORTS...WYOMING/IDAHO/WASHINGTON

CITY           SKY/WX    TMP DP  RH WIND       PRES   REMARKS
GILLETTE       CLEAR     53  41  63 SE20      30.09R
SHERIDAN       MOCLDY    57  42  57 SE12      30.01S
BUFFALO WY     CLOUDY    54  42  64 SE15      30.07R
CODY           MOCLDY    57  43  58 W7        29.99R
YELLOWSTONE LA   N/A     46  34  62 VRB3      30.07S
IDAHO FALLS    CLOUDY    64  47  53 W5        29.89R
SALMON         MOCLDY    63  46  55 N5        29.87R
BOISE          PTSUNNY   70  45  40 E8        29.81R
SPOKANE        PTSUNNY   76  41  28 S9        29.78F
$$

REGIONAL REPORTS...ALBERTA

CITY           SKY/WX    TMP DP  RH WIND       PRES   REMARKS
CALGARY        MOSUNNY   66  27  22 S15       29.95S
LETHBRIDGE     SUNNY     68  30  24 SE9       29.94R
MEDICINE HAT   CLEAR     70  25  18 SE12G20   29.97R
$$

REGIONAL REPORTS...SASKATCHEWAN

CITY           SKY/WX    TMP DP  RH WIND       PRES   REMARKS
SWIFT CURRENT  CLEAR     66  28  24 S13G18    30.05S
REGINA         PTCLDY    70  32  24 S7        30.08R
SASKATOON      CLEAR     70  30  23 S9        30.06S
$$



USA.gov is the U.S. government's official web portal to all federal, state and local government web resources and services.